Date String (YYYY-MM-DD hh:mm:ss) UTC,Instrument flags,Ambient pressure (hPa),Sample flow (lpm),Bypass flow (lpm),Sample temperature (°C),Ambient temperature (°C),ASC tube jacket temperature (°C),LED temperature (°C),Box temperature (°C),Sample RH (%),Span deviation,Mass concentration (μg/m³),Mass concentration (μg/m³),Mass concentration (μg/m³)
DateTimeUTC,F1_M11,P_M11,Q1_M11,Q2_M11,T1_M11,T2_M11,T3_M11,T4_M11,T5_M11,U1_M11,ZSPAN_M11,X0_M11,X2_M11,X1_M11
2023-03-05 21:00:00,,0814.9,5.01,0.00,22.2,21.0,00.0,30.9,24.1,09.3,0000.0,0004.60,0002.44,0001.45
2023-03-05 21:01:00,,0814.7,5.00,0.00,22.2,21.0,00.0,30.9,24.1,09.3,0000.0,0004.70,0002.44,0001.43
2023-03-05 21:02:00,,0814.9,5.00,0.00,22.2,21.1,00.0,30.9,24.1,09.2,0000.0,0004.84,0002.44,0001.42
2023-03-05 21:03:00,,0814.9,5.00,0.00,22.2,21.1,00.0,30.9,24.1,09.2,0000.0,0004.71,0002.39,0001.40
2023-03-05 21:04:00,,0814.9,4.98,0.00,22.2,21.0,00.0,30.9,24.1,09.1,0000.0,0004.80,0002.45,0001.39
2023-03-05 21:05:00,,0814.9,5.01,0.00,22.3,21.1,00.0,30.9,24.1,09.1,0000.0,0004.52,0002.39,0001.39
2023-03-05 21:06:00,,0814.9,5.00,0.00,22.3,21.1,00.0,30.9,24.1,09.0,0000.0,0004.44,0002.37,0001.40
2023-03-05 21:07:00,,0814.9,5.00,0.00,22.3,21.1,00.0,31.0,24.1,08.9,0000.0,0004.60,0002.46,0001.39
2023-03-05 21:08:00,,0814.9,5.00,0.00,22.3,21.1,00.0,31.0,24.1,08.6,0000.0,0004.69,0002.50,0001.39
2023-03-05 21:09:00,,0814.9,4.99,0.00,22.3,21.1,00.0,31.0,24.1,08.6,0000.0,0004.84,0002.47,0001.40
2023-03-05 21:10:00,,0814.9,4.97,0.00,22.3,21.1,00.0,31.0,24.1,08.4,0000.0,0004.92,0002.49,0001.42
2023-03-05 21:11:00,,0814.9,4.99,0.00,22.3,21.1,00.0,31.0,24.2,08.4,0000.0,0005.10,0002.52,0001.41
2023-03-05 21:12:00,,0814.8,5.00,0.00,22.3,21.1,00.0,31.0,24.2,08.5,0000.0,0005.13,0002.54,0001.42
2023-03-05 21:13:00,,0814.9,5.00,0.00,22.3,21.2,00.0,31.0,24.2,08.6,0000.0,0005.05,0002.53,0001.42
2023-03-05 21:14:00,,0814.9,5.00,0.00,22.3,21.2,00.0,31.0,24.3,08.7,0000.0,0005.36,0002.53,0001.43
2023-03-05 21:15:00,,0814.9,5.00,0.00,22.3,21.2,00.0,31.0,24.3,08.9,0000.0,0006.23,0002.47,0001.44
2023-03-05 21:16:00,,0814.9,5.00,0.00,22.4,21.2,00.0,31.0,24.3,09.0,0000.0,0006.65,0002.42,0001.43
2023-03-05 21:17:00,,0815.0,4.99,0.00,22.4,21.2,00.0,31.0,24.3,09.4,0000.0,0006.66,0002.42,0001.42
2023-03-05 21:18:00,,0815.0,5.01,0.00,22.4,21.2,00.0,31.1,24.3,09.2,0000.0,0006.26,0002.27,0001.41
2023-03-05 21:19:00,,0815.2,5.00,0.00,22.4,21.2,00.0,31.1,24.3,09.3,0000.0,0006.01,0002.16,0001.41
2023-03-05 21:20:00,,0814.9,5.00,0.00,22.4,21.2,00.0,31.1,24.3,09.0,0000.0,0005.76,0002.15,0001.41
2023-03-05 21:21:00,,0814.9,5.01,0.00,22.4,21.2,00.0,31.1,24.3,09.0,0000.0,0005.59,0002.10,0001.39
2023-03-05 21:22:00,,0815.1,5.02,0.00,22.4,21.2,00.0,31.1,24.3,09.0,0000.0,0005.44,0002.06,0001.38
2023-03-05 21:23:00,,0815.1,5.00,0.00,22.4,21.3,00.0,31.1,24.3,09.2,0000.0,0005.29,0002.06,0001.38
2023-03-05 21:24:00,,0815.2,5.00,0.00,22.4,21.3,00.0,31.1,24.3,09.2,0000.0,0005.20,0002.07,0001.38
2023-03-05 21:25:00,,0815.2,5.00,0.00,22.4,21.2,00.0,31.1,24.3,09.1,0000.0,0005.01,0002.06,0001.39
2023-03-05 21:26:00,,0815.1,5.01,0.00,22.4,21.3,00.0,31.1,24.4,09.1,0000.0,0004.25,0002.04,0001.38
2023-03-05 21:27:00,,0814.9,5.00,0.00,22.5,21.3,00.0,31.1,24.4,09.2,0000.0,0003.68,0002.10,0001.38
2023-03-05 21:28:00,,0815.1,5.00,0.00,22.5,21.4,00.0,31.1,24.4,09.3,0000.0,0003.95,0002.16,0001.38
2023-03-05 21:29:00,,0815.2,5.00,0.00,22.5,21.4,00.0,31.2,24.4,09.1,0000.0,0004.19,0002.25,0001.38
2023-03-05 21:30:00,,0815.1,4.99,0.00,22.5,21.4,00.0,31.2,24.4,08.8,0000.0,0004.36,0002.28,0001.37
2023-03-05 21:31:00,,0815.2,5.00,0.00,22.5,21.4,00.0,31.2,24.4,08.7,0000.0,0004.87,0002.40,0001.37
2023-03-05 21:32:00,,0815.2,5.01,0.00,22.5,21.4,00.0,31.2,24.4,08.6,0000.0,0005.43,0002.51,0001.38
2023-03-05 21:33:00,,0815.1,5.00,0.00,22.5,21.4,00.0,31.2,24.4,08.4,0000.0,0006.20,0002.54,0001.38
2023-03-05 21:34:00,,0814.5,5.00,0.00,22.5,21.4,00.0,31.2,24.4,08.7,0000.0,0006.28,0002.53,0001.38
2023-03-05 21:35:00,,0814.9,5.00,0.00,22.5,21.3,00.0,31.2,24.3,09.1,0000.0,0006.45,0002.52,0001.37
2023-03-05 21:36:00,,0815.1,4.99,0.00,22.5,21.3,00.0,31.2,24.3,09.0,0000.0,0006.65,0002.57,0001.37
2023-03-05 21:37:00,,0815.0,5.00,0.00,22.5,21.2,00.0,31.2,24.3,08.7,0000.0,0006.68,0002.57,0001.36
2023-03-05 21:38:00,,0815.3,5.00,0.00,22.5,21.2,00.0,31.2,24.4,08.7,0000.0,0006.66,0002.56,0001.36
2023-03-05 21:39:00,,0815.2,5.00,0.00,22.5,21.2,00.0,31.2,24.4,08.8,0000.0,0006.38,0002.51,0001.37
2023-03-05 21:40:00,,0815.3,5.00,0.00,22.5,21.2,00.0,31.2,24.4,08.8,0000.0,0006.41,0002.47,0001.37
2023-03-05 21:41:00,,0815.2,4.99,0.00,22.5,21.3,00.0,31.2,24.4,07.5,0000.0,0007.20,0002.48,0001.38
2023-03-05 21:42:00,,0815.3,5.01,0.00,22.5,21.3,00.0,31.2,24.4,07.3,0000.0,0006.91,0002.40,0001.39
2023-03-05 21:43:00,,0815.1,5.01,0.00,22.5,21.3,00.0,31.2,24.4,07.5,0000.0,0006.52,0002.30,0001.40
2023-03-05 21:44:00,,0815.2,4.99,0.00,22.5,21.3,00.0,31.2,24.4,08.0,0000.0,0006.67,0002.25,0001.40
2023-03-05 21:45:00,,0815.0,5.00,0.00,22.5,21.3,00.0,31.2,24.4,07.6,0000.0,0006.70,0002.20,0001.40
2023-03-05 21:46:00,,0815.1,4.99,0.00,22.5,21.2,00.0,31.2,24.4,07.6,0000.0,0006.47,0002.17,0001.41
2023-03-05 21:47:00,,0815.1,5.01,0.00,22.5,21.2,00.0,31.3,24.4,07.4,0000.0,0006.24,0002.14,0001.42
2023-03-05 21:48:00,,0815.0,5.01,0.00,22.5,21.2,00.0,31.3,24.4,07.1,0000.0,0006.17,0002.13,0001.43
2023-03-05 21:49:00,,0815.0,5.01,0.00,22.5,21.2,00.0,31.3,24.3,06.6,0000.0,0005.88,0002.09,0001.43
2023-03-05 21:50:00,,0815.0,4.99,0.00,22.5,21.1,00.0,31.3,24.3,06.8,0000.0,0005.85,0002.09,0001.42
2023-03-05 21:51:00,,0815.0,5.00,0.00,22.5,21.1,00.0,31.3,24.2,07.2,0000.0,0005.97,0002.12,0001.43
2023-03-05 21:52:00,,0815.1,5.01,0.00,22.5,21.1,00.0,31.3,24.3,07.3,0000.0,0005.12,0002.16,0001.42
2023-03-05 21:53:00,,0815.2,5.01,0.00,22.5,21.0,00.0,31.3,24.2,07.0,0000.0,0004.99,0002.13,0001.41
2023-03-05 21:54:00,,0815.2,5.00,0.00,22.5,21.0,00.0,31.3,24.2,06.8,0000.0,0004.90,0002.11,0001.41
2023-03-05 21:55:00,,0815.2,5.00,0.00,22.4,21.0,00.0,31.2,24.2,06.9,0000.0,0004.09,0002.12,0001.42
2023-03-05 21:56:00,,0815.3,5.00,0.00,22.4,20.9,00.0,31.2,24.1,07.1,0000.0,0003.48,0002.10,0001.42
2023-03-05 21:57:00,,0815.3,5.00,0.00,22.4,20.8,00.0,31.2,24.1,07.1,0000.0,0003.57,0002.12,0001.42
2023-03-05 21:58:00,,0815.3,5.01,0.00,22.4,20.7,00.0,31.2,24.1,07.1,0000.0,0003.73,0002.13,0001.42
2023-03-05 21:59:00,,0815.3,5.00,0.00,22.3,20.6,00.0,31.2,24.0,07.3,0000.0,0003.73,0002.13,0001.42
